Погода Малые Дербеты

Погода Малые Дербеты : погода сейчас, прогноз погоды и архив. Всё, что Вы хотите узнать о погоде Малые Дербеты!

Хотите узнать прогноз погоды Малые Дербеты? Тогда Вам сюда: Погода Малые Дербеты

Поиск расширенной информации на нашем сайте:

Другие новости

Новости СМИ2

Главная страница сайта

Новости сайта

02.10.2013

Напоминаем, что на нашем новом сайте вы можете получить высокодетализированные прогнозы погоды по пунктам России, СНГ и мира (включающие важные для авиации метеовеличины, такие как направление и скорость ветра, видимость, явления погоды, количество и форма облачности, нижняя и верхняя граница облачности), а также ознакомиться с разнообразными материалами по авиационной метеорологии и подборкой полезных ссылок на эту тему.

Сайт Метеоцентр.Азия посвящён разработке технологий оптимизации авиаметеорологического обслуживания, включая проектирование и перспективное создание нескольких автоматизированных авиаметеорологических систем:
- система выпуска высокодетальных прогностических карт явлений погоды для нижнего воздушного пространства по России и ближнему зарубежью;
- система верификации прогнозов TAF (выпускаемых синоптиками официальных АМСГ РФ и ближнего зарубежья) и AUTOTAF (выпускаемых сайтом Метеоцентр.Азия) - выявление ошибок, онлайн-сопоставление с фактической погодой METAR, автоматическое внесение коррективов в прогнозы при резком отклонении фактической погоды от прогноза, подсчёт оправдываемости прогнозов по элементам и в целом;
- система обработки, анализа и отображения авиаметеорологической информации для применения провайдерами метеорологической информации.

Рекомендуем: Заказать Письмо от Деда Мороза с доставкой на дом.

Погода Малые Дербеты - сегодня

Время (UTC), дата Ветер
(°,м/с) 
Видим.   Явления Облачность Т
(°С)
Тd
(°С)
f(%) Тe
(°С)
Pmin
(гПа)
dP
(гПа)
Po
(мм)
O2
(г/м3)
Тmin Tmax R s Состояние
почвы
09 26.04.17 190 (Ю) 20000 м    3/3 600 м 
[Cu hum]
+16.1 -1.3 30 +16  1031.7  773  294           
12 26.04.17 190 (Ю) 3{11}  20000 м    3/3 600 м 
[Cu hum]
+17.2 -3 25 +18  1031.2  -0.6  773  293           
15 26.04.17 170 (Ю) 20000 м    ясно 
+16.2 -2 29 +17  1030.5  -0.6  772  294    +17.5       
18 26.04.17 140 (ЮВ) 20000 м    ясно 
+6.4 +2.3 75 +7  1031.2  0.7  773  304           
21 26.04.17 130 (ЮВ) 20000 м    ясно 
+3.5 +1.3 85 +4  1031.6  0.4  773  307           
00 27.04.17 150 (ЮВ) 20000 м    ясно 
+1.5 -0.2 88 +1  1031.8  0.1  773  310           
03 27.04.17 120 (ЮВ) 20000 м    ясно 
+2.5 +0.1 84 +3  1032.7  774  309  +0.7        влажная 
06 27.04.17 130 (ЮВ) 20000 м    ясно 
+12.5 +1.2 46 +12  1032.8  0.1  774  298           
09 27.04.17 130 (ЮВ) 6-10{12}  20000 м    ясно 
+17.1 -1.3 28 +17  1031.7  -1.1  773  293           
12 27.04.17 120 (ЮВ) 6-11{13}  20000 м  пыльный позёмок  ясно 
+19.5 -1.7 24 +20  1029.8  -1.9  772  290           
15 27.04.17 130 (ЮВ) 6-12{14}  20000 м  пыльный позёмок  ясно 
+17.7 -2.9 24 +18  1029.2  -0.6  771  292    +19.8       
18 27.04.17 130 (ЮВ) 3{12}  20000 м    ясно 
+11.3 +0.1 46 +11  1030.2  772  299           
21 27.04.17 130 (ЮВ) 20000 м    ясно 
+4.9 +0.3 72 +6  1029.6  -0.6  771  305           
00 28.04.17 110 (В) 20000 м    ясно 
+4.9 +1.6 79 +6  1028.3  -1.3  770  305           
03 28.04.17 070 (В) 20000 м    ясно 
+6.5 +2.6 76 +7  1028  -0.3  770  303  +2.8        сухая 
06 28.04.17 110 (В) 7-12{12}  20000 м  пыльный позёмок  ясно 
+17.1 +1.6 35 +17  1027.2  -0.8  770  292           
09 28.04.17 110 (В) 9-15{16}  20000 м  пыльный позёмок  ясно 
+21.4 +1.8 27 +21  1025.5  -0.8  768  287           
12 28.04.17 110 (В) 9-15{19}  20000 м  пыльный позёмок  ясно 
+22.2 -1 21 +22  1024.2  -1.3  767  286           
15 28.04.17 110 (В) 7-15{16}  20000 м  пыльный позёмок  ясно 
+19.5 -0.9 25 +20  1023.7  -0.6  767  289    +22.7       
18 28.04.17 090 (В) 4{14}  20000 м    ясно 
+12.7 -0.9 39 +12  1024.4  0.7  767  296           
21 28.04.17 090 (В) 20000 м    ясно 
+10.7 +1.2 52 +10  1023.7  -0.6  767  297           
00 29.04.17 090 (В) 20000 м    ясно 
+9.6 +2.4 61 +8  1022.5  -1.2  766  298           
03 29.04.17 090 (В) 20000 м    ясно 
+8.5 +3.6 71 +8  1022.7  0.2  766  299  +7.1        сухая 
06 29.04.17 120 (ЮВ) 6-11  20000 м  пыльный позёмок  ясно 
+16.8 +3.9 42 +17  1022.6  0.1  766  290           
09 29.04.17 120 (ЮВ) 6-11{14}  20000 м  пыльный позёмок  8/0 средняя, верхняя 
[Ac cast|Ci fib]
+22 +3.2 29 +22  1022  -0.5  766  285           
Время (UTC), дата Ветер
(°,м/с) 
Видим.   Явления Облачность Т
(°С)
Тd
(°С)
f(%) Тe
(°С)
Pmin
(гПа)
dP
(гПа)
Po
(мм)
O2
(г/м3)
Тmin Tmax R s Состояние
почвы

Для получения пояснительной информации подведите курсор к названию столбца.

ПОГОДА Малые Дербеты - архив

Всё, что Вы хотите узнать о погоде Малые Дербеты - удобно и подробно!

Выберите нужную дату (начиная с 1 января 2015* года) и нажмите кнопку "Найти".
Будут отображены архивные сводки погоды по пункту Малые Дербеты, начиная с указанной даты.


Отображать данные в формате CSV (для использования в таблицах Excel)


Внимание! Наш архив погоды предназначен исключительно для личного некоммерческого использования в познавательных целях. Если Вам необходимы официальные справки о состоянии погоды (для производственных, юридических, коммерческих и т.п. целей), обращайтесь в органы Росгидромета.

*Примечание: данная дата относится к архиву по метеостанциям СССР (Россия, СНГ, Балтия).
Архив по метеостанциям Зарубежной Европы и Азии (кроме Китая) хранится 10 дней, по другим регионам земного шара (Китай, Африка, Америка, Австралия, Океания) - 1 день.

Малые Дербеты - район местоположения метеостанции


Название, широта, долгота, высота метеостанции:
Малые Дербеты 47.9°ш. 44.7°д. 9 м над ур. моря [Российская Федерация]

Дополнительная информация

В oтличие oт бoльшинства пoгoдных сайтoв мы публикуем пoдрoбную метеoинфoрмацию в детальнoм прoфессиoнальнoм фoрмате.

Характеристики температуры и влажнoсти вoздуха измеряются на высoте 2 м в тени вдали oт зданий и деревьев.
Скoрoсть ветра измеряется на высoте 10 м (на урoвне рoста челoвека скoрoсть ветра ниже в 1.5-2 раза). Если метеoстанция нахoдится в гoрoде или в лесу, тo скoрoсть ветра занижена на 2-4 м/с пo сравнению с oткрытым местoм. Скoрoсть ветра над акватoриями крупных рек и oзёр, а также на вершинах хoлмoв на 2-5 м/с выше, чем в oбычных услoвиях.
Атмoсфернoе давление в разных тoчках местнoсти мoжет значительнo oтличаться oт давления на метеoстанции, в зависимoсти oт услoвий рельефа (при пoдъёме на 10 м давление пoнижается примернo на 1 мм рт.ст.).